Flag for Germany Weather past 2 weeks in Fürstenwalde/Spree, Brandenburg, Germany

Now
43 °F

Fog.


Feels Like: 42 °F
Forecast: 36 / 52 °F
Wind: 3 mph from Southeast

Location: Lindenberg

Current Time: Oct 24, 2014 at 6:50:30 PM

Latest Report: Oct 24, 2014 at 6:00 PM


Visibility: 1 mi

Pressure: 30.24 "Hg

Humidity: 93%

Dew point: 42 °F

Location of Fürstenwalde/SpreeLocation

Historic Weather in Fürstenwalde/Spree — Graph

°F

Fürstenwalde/Spree temperature yesterday

Maximum temperature yesterday: 52 °F (at 1:00 AM)
Minimum temperature yesterday: 46 °F (at 10:00 PM)
Average temperature yesterday: 50 °F

Past Weeks' High & Low Weather Summary

 TemperatureHumidityPressure
High70 °F (Oct 19, 4:00 PM)100% (Oct 17, 12:00 AM)30.30 "Hg (Oct 17, 12:00 AM)
Low43 °F (Oct 24, 12:00 PM)61% (Oct 10, 3:00 PM)29.44 "Hg (Oct 22, 12:00 AM)
Average56 °F91%29.90 "Hg
* Reported Oct 9 6:00 PM — Oct 24 6:00 PM, Fürstenwalde/Spree, Weather by CustomWeather, © 2014

Note: Actual official high and low records may vary slightly from our data, if they occured in-between our weather recording intervals... More about our weather records

Advertising

Fürstenwalde/Spree weather history for previous 24 hours

 ConditionsComfort  
Time TempWeatherWind HumidityBarometerVisibility
6:00 PM
Oct 24
43 °FFog.3 mph93%30.24 "Hg1 mi
4:00 PM44 °FFog.3 mph93%30.25 "Hg1 mi
3:00 PM44 °FFog.3 mph96%30.26 "Hg1 mi
2:00 PM44 °FFog.3 mph95%30.27 "Hg1 mi
1:00 PM43 °FFog.3 mph96%30.29 "Hg1 mi
12:00 PM43 °FFog.2 mph97%30.30 "Hg1 mi
10:00 AM43 °FLow clouds.3 mph97%30.29 "Hg1 mi
9:00 AM43 °FDrizzle. Low clouds.2 mph98%30.29 "Hg1 mi
8:00 AM43 °FLow clouds.2 mph98%30.28 "Hg1 mi
7:00 AM44 °FFog.3 mph96%30.27 "Hg2 mi
6:00 AM44 °FLow clouds.2 mph97%30.26 "Hg4 mi
5:00 AM44 °FFog.2 mph97%30.25 "Hg2 mi
4:00 AM44 °FLow clouds.2 mph97%30.26 "Hg5 mi
3:00 AM45 °FLow clouds.1 mph95%30.26 "Hg5 mi
2:00 AM45 °FLow clouds.1 mph95%30.26 "Hg5 mi
1:00 AM45 °FLow clouds.2 mph95%30.25 "Hg5 mi
12:00 AM45 °FLow clouds.2 mph96%30.26 "Hg5 mi
10:00 PM
Oct 23
46 °FLow clouds.2 mph93%30.25 "Hg6 mi
9:00 PM47 °FLow clouds.2 mph93%30.23 "Hg6 mi
8:00 PM47 °FOvercast.2 mph94%30.22 "Hg6 mi
7:00 PM47 °FOvercast.2 mph94%30.21 "Hg6 mi
6:00 PM48 °FLow clouds.1 mph92%30.20 "Hg7 mi
Weather by CustomWeather, © 2014

See weather overviewHow to use our weather pages